Tracking 29018 objects as of 15-Jun-2024
HD Live streaming from Space Station
objects crossing your sky now

SAUDISAT 3

Track SAUDISAT 3 now!
10-day predictions
SAUDISAT 3 is classified as:


NORAD ID: 31118
Int'l Code: 2007-012B
Perigee: 656.3 km
Apogee: 678.6 km
Inclination: 98.1 °
Period: 97.9 minutes
Semi major axis: 7038 km
RCS: 0.633 m2 (medium)
Launch date: April 17, 2007
Source: Saudi Arabia (SAUD)
Launch site: TYURATAM MISSILE AND SPACE COMPLEX (TTMTR)
Your satellite tracking list
Your tracking list is empty




NASA's NSSDC Master Catalog

Two Line Element Set (TLE):
1 31118U 07012B   24166.84920053  .00000596  00000-0  10698-3 0  9991
2 31118  98.0560 110.5047 0015871  41.8399 318.4017 14.70238279920095
Source of the keplerian elements: AFSPC